When you browse on this site, cookies collect data to enhance your experience and personalize the content and advertising you see.
Visit our Privacy Policy to learn more. By continuing to use the site, you agree to this use of cookies and data.
  • In Österreich
  • Länderverzeichnis
  • Für 7 Tage
  • Wassertemperatur
  • Wetterkarte
  • News
  • Widgets
  • user-avatar
    Anmelden

    Stündliche Wetter Hirky

    Heute, 4 Juni, Donnerstag

    Zeit Temperatur Niederschläge Wind Luftdruck Luftfeuchtigkeit
    00:00 +11°C° 0.2 mm 1 m/S 741 mmHg 91%
    01:00 +11°C° 0.2 mm 1 m/S 740 mmHg 92%
    02:00 +10°C° 0.2 mm 2 m/S 740 mmHg 94%
    03:00 +10°C° 0.8 mm 2 m/S 740 mmHg 95%
    04:00 +10°C° 0.8 mm 2 m/S 740 mmHg 96%
    05:00 +10°C° 0.8 mm 2 m/S 740 mmHg 97%
    06:00 +10°C° 1.7 mm 2 m/S 740 mmHg 97%
    07:00 +10°C° 1.7 mm 2 m/S 740 mmHg 96%
    08:00 +10°C° 1.7 mm 2 m/S 740 mmHg 96%
    09:00 +12°C° 0.6 mm 2 m/S 740 mmHg 92%
    10:00 +13°C° 0.6 mm 2 m/S 740 mmHg 88%
    11:00 +14°C° 0.6 mm 2 m/S 740 mmHg 84%
    12:00 +14°C° 0.3 mm 3 m/S 740 mmHg 79%
    13:00 +17°C° 0.3 mm 4 m/S 741 mmHg 75%
    14:00 +17°C° 0.3 mm 5 m/S 741 mmHg 70%
    15:00 +17°C° 0.2 mm 5 m/S 741 mmHg 71%
    16:00 +16°C° 0.2 mm 5 m/S 741 mmHg 73%
    17:00 +17°C° 0.2 mm 4 m/S 741 mmHg 74%
    18:00 +15°C° 0.2 mm 4 m/S 741 mmHg 80%
    19:00 +13°C° 0.2 mm 3 m/S 741 mmHg 86%
    20:00 +12°C° 0.2 mm 3 m/S 741 mmHg 91%
    21:00 +12°C° 0.1 mm 3 m/S 741 mmHg 92%
    22:00 +11°C° 0.1 mm 3 m/S 741 mmHg 93%
    23:00 +11°C° 0.1 mm 3 m/S 741 mmHg 94%

    Morgen, 5 Juni, Freitag

    Zeit Temperatur Niederschläge Wind Luftdruck Luftfeuchtigkeit
    00:00 +11°C° 0.2 mm 3 m/S 741 mmHg 94%
    01:00 +11°C° 0.2 mm 3 m/S 741 mmHg 94%
    02:00 +11°C° 0.2 mm 3 m/S 742 mmHg 95%
    03:00 +11°C° 0.1 mm 4 m/S 741 mmHg 95%
    04:00 +11°C° 0.1 mm 4 m/S 741 mmHg 95%
    05:00 +10°C° 0.1 mm 5 m/S 741 mmHg 96%
    06:00 +12°C° 0.4 mm 5 m/S 741 mmHg 94%
    07:00 +13°C° 0.4 mm 5 m/S 742 mmHg 93%
    08:00 +13°C° 0.4 mm 5 m/S 742 mmHg 91%
    09:00 +14°C° 0.2 mm 5 m/S 742 mmHg 90%
    10:00 +15°C° 0.2 mm 6 m/S 742 mmHg 88%
    11:00 +16°C° 0.2 mm 6 m/S 742 mmHg 87%
    12:00 +17°C° 0.4 mm 6 m/S 742 mmHg 85%
    13:00 +17°C° 0.4 mm 5 m/S 742 mmHg 83%
    14:00 +19°C° 0.4 mm 5 m/S 742 mmHg 81%
    15:00 +19°C° 0.1 mm 5 m/S 742 mmHg 82%
    16:00 +19°C° 0.1 mm 4 m/S 742 mmHg 82%
    17:00 +19°C° 0.1 mm 4 m/S 742 mmHg 83%
    18:00 +18°C° 0 mm 3 m/S 743 mmHg 87%
    19:00 +17°C° 0 mm 3 m/S 743 mmHg 91%
    20:00 +16°C° 0 mm 2 m/S 743 mmHg 95%
    21:00 +16°C° 0 mm 2 m/S 743 mmHg 95%
    22:00 +16°C° 0 mm 2 m/S 743 mmHg 95%
    23:00 +16°C° 0 mm 2 m/S 744 mmHg 94%

    übermorgen, 6 Juni, Samstag

    Zeit Temperatur Niederschläge Wind Luftdruck Luftfeuchtigkeit
    00:00 +14°C° 0 mm 3 m/S 744 mmHg 94%
    01:00 +14°C° 0 mm 3 m/S 744 mmHg 94%
    02:00 +14°C° 0 mm 3 m/S 744 mmHg 94%
    03:00 +14°C° 0 mm 3 m/S 744 mmHg 94%
    04:00 +14°C° 0 mm 4 m/S 744 mmHg 94%
    05:00 +15°C° 0 mm 4 m/S 744 mmHg 95%
    06:00 +17°C° 0 mm 4 m/S 745 mmHg 92%
    07:00 +17°C° 0 mm 5 m/S 745 mmHg 88%
    08:00 +20°C° 0 mm 5 m/S 745 mmHg 85%
    09:00 +21°C° 0.2 mm 5 m/S 745 mmHg 83%
    10:00 +22°C° 0.2 mm 6 m/S 746 mmHg 81%
    11:00 +24°C° 0.2 mm 6 m/S 746 mmHg 79%
    12:00 +24°C° 0.5 mm 6 m/S 746 mmHg 79%
    13:00 +24°C° 0.5 mm 7 m/S 746 mmHg 79%
    14:00 +24°C° 0.5 mm 7 m/S 746 mmHg 79%
    15:00 +24°C° 0.1 mm 6 m/S 746 mmHg 79%
    16:00 +24°C° 0.1 mm 6 m/S 746 mmHg 79%
    17:00 +23°C° 0.1 mm 5 m/S 746 mmHg 79%
    18:00 +22°C° 0 mm 4 m/S 746 mmHg 83%
    19:00 +21°C° 0 mm 4 m/S 747 mmHg 87%
    20:00 +20°C° 0 mm 3 m/S 747 mmHg 91%
    21:00 +19°C° 0 mm 3 m/S 747 mmHg 92%
    22:00 +19°C° 0 mm 3 m/S 747 mmHg 93%
    23:00 +18°C° 0 mm 3 m/S 748 mmHg 93%

    7 Juni, Sonntag

    Zeit Temperatur Niederschläge Wind Luftdruck Luftfeuchtigkeit
    00:00 +17°C° 0 mm 3 m/S 748 mmHg 93%
    01:00 +17°C° 0 mm 3 m/S 748 mmHg 92%
    02:00 +16°C° 0 mm 3 m/S 748 mmHg 92%
    03:00 +16°C° 0 mm 3 m/S 749 mmHg 92%
    04:00 +16°C° 0 mm 3 m/S 749 mmHg 92%
    05:00 +16°C° 0 mm 2 m/S 749 mmHg 92%
    06:00 +18°C° 0 mm 2 m/S 749 mmHg 87%
    07:00 +20°C° 0 mm 3 m/S 750 mmHg 83%
    08:00 +22°C° 0 mm 3 m/S 750 mmHg 78%
    09:00 +24°C° 0 mm 3 m/S 750 mmHg 74%
    10:00 +25°C° 0 mm 4 m/S 750 mmHg 70%
    11:00 +26°C° 0 mm 4 m/S 750 mmHg 66%
    12:00 +26°C° 0 mm 5 m/S 750 mmHg 66%
    13:00 +27°C° 0 mm 5 m/S 750 mmHg 65%
    14:00 +27°C° 0 mm 5 m/S 750 mmHg 65%
    15:00 +26°C° 0 mm 5 m/S 750 mmHg 68%
    16:00 +26°C° 0 mm 4 m/S 750 mmHg 72%
    17:00 +26°C° 0 mm 4 m/S 749 mmHg 75%
    18:00 +24°C° 0 mm 3 m/S 749 mmHg 80%
    19:00 +21°C° 0 mm 3 m/S 750 mmHg 85%
    20:00 +20°C° 0 mm 2 m/S 750 mmHg 90%
    21:00 +19°C° 0 mm 3 m/S 750 mmHg 92%
    22:00 +19°C° 0 mm 3 m/S 750 mmHg 93%
    23:00 +19°C° 0 mm 3 m/S 750 mmHg 94%

    8 Juni, Montag

    Zeit Temperatur Niederschläge Wind Luftdruck Luftfeuchtigkeit
    00:00 +18°C° 0 mm 3 m/S 750 mmHg 94%
    01:00 +18°C° 0 mm 3 m/S 750 mmHg 93%
    02:00 +18°C° 0 mm 3 m/S 749 mmHg 93%
    03:00 +18°C° 0 mm 3 m/S 749 mmHg 93%
    04:00 +18°C° 0 mm 3 m/S 749 mmHg 92%
    05:00 +18°C° 0 mm 3 m/S 749 mmHg 92%
    06:00 +20°C° 0 mm 4 m/S 749 mmHg 87%
    07:00 +21°C° 0 mm 4 m/S 749 mmHg 82%
    08:00 +23°C° 0 mm 5 m/S 749 mmHg 77%
    09:00 +25°C° 0 mm 5 m/S 749 mmHg 74%
    10:00 +26°C° 0 mm 6 m/S 749 mmHg 70%
    11:00 +27°C° 0 mm 6 m/S 749 mmHg 67%
    12:00 +27°C° 0 mm 7 m/S 749 mmHg 66%
    13:00 +28°C° 0 mm 7 m/S 749 mmHg 66%
    14:00 +28°C° 0 mm 7 m/S 748 mmHg 66%
    15:00 +28°C° 0 mm 6 m/S 748 mmHg 69%
    16:00 +27°C° 0 mm 5 m/S 748 mmHg 72%
    17:00 +27°C° 0 mm 5 m/S 748 mmHg 75%
    18:00 +26°C° 0 mm 4 m/S 748 mmHg 78%
    19:00 +23°C° 0 mm 4 m/S 748 mmHg 81%
    20:00 +22°C° 0 mm 4 m/S 748 mmHg 84%
    21:00 +21°C° 0 mm 4 m/S 748 mmHg 86%
    22:00 +21°C° 0 mm 4 m/S 749 mmHg 87%
    23:00 +20°C° 0 mm 4 m/S 749 mmHg 88%

    9 Juni, Dienstag

    Zeit Temperatur Niederschläge Wind Luftdruck Luftfeuchtigkeit
    00:00 +20°C° 0 mm 4 m/S 749 mmHg 89%
    01:00 +19°C° 0 mm 4 m/S 749 mmHg 91%
    02:00 +19°C° 0 mm 4 m/S 749 mmHg 92%
    03:00 +19°C° 0 mm 4 m/S 749 mmHg 91%
    04:00 +19°C° 0 mm 4 m/S 749 mmHg 91%
    05:00 +19°C° 0 mm 4 m/S 749 mmHg 90%
    06:00 +21°C° 0 mm 4 m/S 749 mmHg 86%
    07:00 +23°C° 0 mm 4 m/S 750 mmHg 82%
    08:00 +25°C° 0 mm 5 m/S 750 mmHg 78%
    09:00 +26°C° 0 mm 5 m/S 750 mmHg 73%
    10:00 +28°C° 0 mm 5 m/S 750 mmHg 69%
    11:00 +29°C° 0 mm 6 m/S 750 mmHg 64%
    12:00 +29°C° 0.1 mm 6 m/S 750 mmHg 64%
    13:00 +29°C° 0.1 mm 6 m/S 750 mmHg 64%
    14:00 +29°C° 0.1 mm 6 m/S 750 mmHg 64%
    15:00 +29°C° 0.1 mm 5 m/S 750 mmHg 68%
    16:00 +28°C° 0.1 mm 5 m/S 749 mmHg 72%
    17:00 +28°C° 0.1 mm 4 m/S 749 mmHg 75%
    18:00 +26°C° 0.1 mm 4 m/S 749 mmHg 80%
    19:00 +25°C° 0.1 mm 3 m/S 749 mmHg 84%
    20:00 +22°C° 0.1 mm 3 m/S 749 mmHg 89%
    21:00 +21°C° 0 mm 3 m/S 749 mmHg 90%
    22:00 +21°C° 0 mm 3 m/S 750 mmHg 92%
    23:00 +20°C° 0 mm 3 m/S 750 mmHg 93%
    Mehr zeigen